GLD769 SBAR-SBJE

Flight info

Callsign GLD769
Flight time 1h 36m
Altitude 35000
Route GERSO UZ42 ANBEX DCT IREKI DCT IROSI UZ81 ISUPI
Aircraft B738/M-SDE2E3FGHIRWXY/LB1

Departure

Time 2026-05-04 23:21
Airport Aracaju - Santa Maria Airport (SBAR)

Arrival

Time 2026-05-05 00:58
Airport Comandante Ariston Pessoa Airport (SBJE)
Time Latitude Longitude Altitude Speed Heading
2026-05-04 22:44 -10.98635 -37.07242 29 ft 0 kts 181°
2026-05-04 23:08 -10.98613 -37.07241 28 ft 4 kts 188°
2026-05-04 23:08 -10.98590 -37.07233 28 ft 4 kts 233°
2026-05-04 23:08 -10.98585 -37.07223 28 ft 0 kts 271°
2026-05-04 23:14 -10.98583 -37.07226 28 ft 0 kts 290°
2026-05-04 23:15 -10.98562 -37.07239 28 ft 6 kts 354°
2026-05-04 23:15 -10.98493 -37.07235 27 ft 0 kts
2026-05-04 23:18 -10.98485 -37.07234 27 ft 3 kts
2026-05-04 23:18 -10.98444 -37.07234 27 ft 7 kts
2026-05-04 23:18 -10.98421 -37.07244 27 ft 5 kts 318°
2026-05-04 23:19 -10.98395 -37.07301 27 ft 13 kts 277°
2026-05-04 23:19 -10.98392 -37.07423 29 ft 21 kts 271°
2026-05-04 23:19 -10.98365 -37.07571 32 ft 23 kts 272°
2026-05-04 23:19 -10.98367 -37.07762 28 ft 32 kts 268°
2026-05-04 23:20 -10.98364 -37.07931 28 ft 12 kts 274°
2026-05-04 23:20 -10.98346 -37.08030 29 ft 16 kts 231°
2026-05-04 23:20 -10.98369 -37.07999 29 ft 4 kts 94°
2026-05-04 23:20 -10.98369 -37.07998 29 ft 0 kts 94°
2026-05-04 23:21 -10.98369 -37.07997 29 ft 3 kts 94°
2026-05-04 23:21 -10.98382 -37.07672 28 ft 90 kts 91°
2026-05-04 23:21 -10.98429 -37.06752 44 ft 166 kts 95°
2026-05-04 23:21 -10.98507 -37.05478 745 ft 187 kts 97°
2026-05-04 23:22 -10.98578 -37.04171 1947 ft 189 kts 89°
2026-05-04 23:22 -10.98136 -37.02813 2482 ft 217 kts 66°
2026-05-04 23:22 -10.97366 -37.01384 2818 ft 239 kts 64°
2026-05-04 23:22 -10.96635 -36.99833 2971 ft 250 kts 75°
2026-05-04 23:23 -10.96142 -36.98070 3487 ft 263 kts 76°
2026-05-04 23:23 -10.95646 -36.96266 4430 ft 266 kts 77°
2026-05-04 23:23 -10.95148 -36.94457 5412 ft 266 kts 76°
2026-05-04 23:23 -10.94645 -36.92623 6273 ft 271 kts 76°
2026-05-04 23:24 -10.93989 -36.90810 7099 ft 277 kts 62°
2026-05-04 23:24 -10.92948 -36.89147 7958 ft 279 kts 60°
2026-05-04 23:24 -10.91974 -36.87452 8782 ft 283 kts 63°
2026-05-04 23:24 -10.91067 -36.85643 9653 ft 285 kts 66°
2026-05-04 23:25 -10.90248 -36.83827 10424 ft 290 kts 68°
2026-05-04 23:25 -10.89429 -36.81868 10665 ft 314 kts 69°
2026-05-04 23:25 -10.88577 -36.79728 10846 ft 337 kts 69°
2026-05-04 23:25 -10.87691 -36.77437 11026 ft 358 kts 69°
2026-05-04 23:26 -10.86774 -36.75030 11457 ft 368 kts 69°
2026-05-04 23:26 -10.85850 -36.72586 12104 ft 372 kts 68°
2026-05-04 23:26 -10.84916 -36.70115 12640 ft 378 kts 68°
2026-05-04 23:26 -10.83914 -36.67627 13208 ft 381 kts 61°
2026-05-04 23:27 -10.82363 -36.65444 13762 ft 383 kts 44°
2026-05-04 23:27 -10.80264 -36.63772 14264 ft 385 kts 29°
2026-05-04 23:27 -10.77885 -36.62521 14799 ft 386 kts 26°
2026-05-04 23:27 -10.75452 -36.61318 15248 ft 391 kts 25°
2026-05-04 23:28 -10.72996 -36.60119 15775 ft 393 kts 25°
2026-05-04 23:28 -10.70518 -36.58906 16192 ft 398 kts 26°
2026-05-04 23:28 -10.68016 -36.57671 16621 ft 401 kts 26°
2026-05-04 23:28 -10.65499 -36.56419 17079 ft 405 kts 27°
2026-05-04 23:29 -10.62954 -36.55147 17459 ft 409 kts 27°
2026-05-04 23:29 -10.60391 -36.53861 17904 ft 412 kts 27°
2026-05-04 23:29 -10.57845 -36.52581 18297 ft 415 kts 28°
2026-05-04 23:29 -10.55214 -36.51257 18665 ft 418 kts 28°
2026-05-04 23:30 -10.52639 -36.49961 19035 ft 420 kts 28°
2026-05-04 23:30 -10.50013 -36.48640 19432 ft 421 kts 28°
2026-05-04 23:30 -10.47385 -36.47318 19805 ft 423 kts 27°
2026-05-04 23:30 -10.44734 -36.45984 20164 ft 425 kts 28°
2026-05-04 23:31 -10.42078 -36.44648 20542 ft 427 kts 27°
2026-05-04 23:31 -10.39402 -36.43304 20867 ft 430 kts 28°
2026-05-04 23:31 -10.36717 -36.41955 21259 ft 431 kts 27°
2026-05-04 23:31 -10.34025 -36.40602 21593 ft 433 kts 27°
2026-05-04 23:32 -10.32238 -36.39704 21866 ft 433 kts 27°
2026-05-04 23:32 -10.29529 -36.38343 22196 ft 436 kts 27°
2026-05-04 23:32 -10.26804 -36.36973 22514 ft 437 kts 27°
2026-05-04 23:32 -10.24069 -36.35600 22845 ft 439 kts 27°
2026-05-04 23:33 -10.21328 -36.34223 23162 ft 441 kts 27°
2026-05-04 23:33 -10.18571 -36.32839 23517 ft 442 kts 27°
2026-05-04 23:33 -10.15804 -36.31450 23753 ft 445 kts 27°
2026-05-04 23:33 -10.13029 -36.30058 24042 ft 446 kts 27°
2026-05-04 23:34 -10.10238 -36.28657 24215 ft 449 kts 27°
2026-05-04 23:34 -10.07430 -36.27249 24465 ft 451 kts 27°
2026-05-04 23:34 -10.04614 -36.25837 24673 ft 454 kts 27°
2026-05-04 23:34 -10.01776 -36.24414 24922 ft 455 kts 27°
2026-05-04 23:35 -9.98928 -36.22986 25115 ft 458 kts 27°
2026-05-04 23:35 -9.96070 -36.21554 25355 ft 459 kts 27°
2026-05-04 23:35 -9.93192 -36.20111 25539 ft 462 kts 27°
2026-05-04 23:35 -9.90307 -36.18666 25753 ft 464 kts 27°
2026-05-04 23:36 -9.87401 -36.17210 25959 ft 466 kts 26°
2026-05-04 23:36 -9.84527 -36.15771 26175 ft 467 kts 26°
2026-05-04 23:36 -9.81601 -36.14306 26371 ft 470 kts 26°
2026-05-04 23:36 -9.78666 -36.12836 26574 ft 471 kts 26°
2026-05-04 23:37 -9.75717 -36.11360 26745 ft 474 kts 26°
2026-05-04 23:37 -9.72752 -36.09877 26889 ft 477 kts 26°
2026-05-04 23:37 -9.69778 -36.08389 27072 ft 479 kts 26°
2026-05-04 23:37 -9.66781 -36.06890 27275 ft 480 kts 26°
2026-05-04 23:38 -9.63780 -36.05389 27467 ft 481 kts 26°
2026-05-04 23:38 -9.60765 -36.03881 27642 ft 483 kts 26°
2026-05-04 23:38 -9.57749 -36.02373 27819 ft 485 kts 26°
2026-05-04 23:38 -9.54710 -36.00854 27981 ft 487 kts 26°
2026-05-04 23:39 -9.51673 -35.99337 28162 ft 488 kts 26°
2026-05-04 23:39 -9.48619 -35.97810 28317 ft 490 kts 26°
2026-05-04 23:39 -9.45559 -35.96282 28479 ft 492 kts 26°
2026-05-04 23:39 -9.42474 -35.94741 28601 ft 494 kts 26°
2026-05-04 23:40 -9.39396 -35.93204 28793 ft 494 kts 26°
2026-05-04 23:40 -9.36307 -35.91661 29008 ft 495 kts 26°
2026-05-04 23:40 -9.33263 -35.90142 29298 ft 493 kts 25°
2026-05-04 23:40 -9.30145 -35.88586 29523 ft 494 kts 25°
2026-05-04 23:41 -9.27100 -35.87066 29762 ft 494 kts 25°
2026-05-04 23:41 -9.24016 -35.85528 29948 ft 495 kts 25°
2026-05-04 23:41 -9.20925 -35.83986 30214 ft 494 kts 25°
2026-05-04 23:41 -9.17839 -35.82447 30373 ft 495 kts 25°
2026-05-04 23:42 -9.14752 -35.80907 30587 ft 495 kts 25°
2026-05-04 23:42 -9.11656 -35.79363 30820 ft 495 kts 25°
2026-05-04 23:42 -9.08569 -35.77824 31078 ft 494 kts 25°
2026-05-04 23:42 -9.05479 -35.76285 31308 ft 494 kts 25°
2026-05-04 23:43 -9.02367 -35.74828 31556 ft 493 kts 20°
2026-05-04 23:43 -8.99099 -35.73807 31786 ft 490 kts 10°
2026-05-04 23:43 -8.95759 -35.73152 32079 ft 488 kts
2026-05-04 23:43 -8.92413 -35.72539 32328 ft 488 kts
2026-05-04 23:44 -8.89070 -35.71931 32562 ft 488 kts
2026-05-04 23:44 -8.85728 -35.71312 32826 ft 488 kts
2026-05-04 23:44 -8.82392 -35.70681 33096 ft 487 kts
2026-05-04 23:44 -8.79063 -35.70041 33360 ft 487 kts
2026-05-04 23:45 -8.75736 -35.69394 33629 ft 487 kts
2026-05-04 23:45 -8.72411 -35.68744 33900 ft 487 kts
2026-05-04 23:45 -8.69086 -35.68093 34150 ft 486 kts
2026-05-04 23:45 -8.65768 -35.67443 34402 ft 485 kts
2026-05-04 23:46 -8.62452 -35.66793 34667 ft 484 kts
2026-05-04 23:46 -8.59152 -35.66148 34953 ft 482 kts
2026-05-04 23:46 -8.52536 -35.64857 35005 ft 484 kts
2026-05-04 23:47 -8.45940 -35.63570 34998 ft 481 kts
2026-05-04 23:47 -8.39388 -35.62292 35004 ft 478 kts
2026-05-04 23:48 -8.32907 -35.61028 35000 ft 477 kts
2026-05-04 23:48 -8.26398 -35.59760 35000 ft 476 kts
2026-05-04 23:49 -8.19889 -35.58493 35003 ft 476 kts
2026-05-04 23:49 -8.13370 -35.57223 34990 ft 477 kts
2026-05-04 23:50 -8.06840 -35.55952 34999 ft 479 kts
2026-05-04 23:50 -8.00283 -35.54676 34985 ft 480 kts
2026-05-04 23:51 -7.93715 -35.53398 34989 ft 482 kts
2026-05-04 23:51 -7.87119 -35.52115 34984 ft 483 kts
2026-05-04 23:52 -7.80519 -35.50831 34978 ft 483 kts
2026-05-04 23:52 -7.73915 -35.49547 34982 ft 483 kts
2026-05-04 23:53 -7.67314 -35.48275 34977 ft 482 kts
2026-05-04 23:53 -7.60689 -35.48191 34983 ft 473 kts 348°
2026-05-04 23:54 -7.54320 -35.49598 34978 ft 471 kts 344°
2026-05-04 23:54 -7.47903 -35.51030 34969 ft 472 kts 345°
2026-05-04 23:55 -7.41714 -35.53062 34975 ft 465 kts 329°
2026-05-04 23:55 -7.36456 -35.56736 34986 ft 459 kts 317°
2026-05-04 23:56 -7.34032 -35.58835 34974 ft 459 kts 316°
2026-05-04 23:56 -7.29178 -35.63031 35001 ft 460 kts 317°
2026-05-04 23:57 -7.24284 -35.67180 35016 ft 460 kts 317°
2026-05-04 23:57 -7.19373 -35.71321 35021 ft 460 kts 317°
2026-05-04 23:58 -7.14464 -35.75417 35026 ft 461 kts 318°
2026-05-04 23:58 -7.09524 -35.79538 35022 ft 461 kts 317°
2026-05-04 23:59 -7.04595 -35.83681 35013 ft 462 kts 317°
2026-05-04 23:59 -6.99652 -35.87812 34989 ft 462 kts 318°
2026-05-05 00:00 -6.94690 -35.91937 34987 ft 463 kts 318°
2026-05-05 00:00 -6.89723 -35.96066 34983 ft 463 kts 318°
2026-05-05 00:01 -6.84754 -36.00200 34984 ft 463 kts 318°
2026-05-05 00:01 -6.79789 -36.04331 34983 ft 463 kts 318°
2026-05-05 00:02 -6.74818 -36.08466 34975 ft 463 kts 318°
2026-05-05 00:02 -6.69848 -36.12600 34978 ft 464 kts 318°
2026-05-05 00:03 -6.64871 -36.16737 34981 ft 464 kts 318°
2026-05-05 00:03 -6.59899 -36.20870 34972 ft 464 kts 318°
2026-05-05 00:04 -6.54924 -36.25004 34973 ft 464 kts 318°
2026-05-05 00:04 -6.49975 -36.29115 34974 ft 464 kts 318°
2026-05-05 00:05 -6.44998 -36.33250 34973 ft 464 kts 318°
2026-05-05 00:05 -6.40020 -36.37383 34970 ft 464 kts 318°
2026-05-05 00:06 -6.35038 -36.41519 34976 ft 464 kts 318°
2026-05-05 00:06 -6.30075 -36.45684 34959 ft 464 kts 317°
2026-05-05 00:07 -6.25107 -36.49836 34960 ft 464 kts 318°
2026-05-05 00:07 -6.20109 -36.53953 34959 ft 464 kts 318°
2026-05-05 00:08 -6.15148 -36.58050 34959 ft 464 kts 318°
2026-05-05 00:08 -6.10170 -36.62167 34954 ft 464 kts 318°
2026-05-05 00:09 -6.05193 -36.66294 34950 ft 464 kts 318°
2026-05-05 00:09 -6.00223 -36.70420 34950 ft 464 kts 318°
2026-05-05 00:10 -5.95247 -36.74550 34951 ft 464 kts 318°
2026-05-05 00:10 -5.90268 -36.78681 34942 ft 464 kts 318°
2026-05-05 00:11 -5.85289 -36.82811 34943 ft 464 kts 318°
2026-05-05 00:11 -5.80303 -36.86944 34941 ft 465 kts 318°
2026-05-05 00:12 -5.75313 -36.91081 34939 ft 465 kts 318°
2026-05-05 00:12 -5.70313 -36.95225 34947 ft 466 kts 318°
2026-05-05 00:13 -5.65305 -36.99374 34932 ft 467 kts 318°
2026-05-05 00:13 -5.60297 -37.03524 34937 ft 467 kts 319°
2026-05-05 00:14 -5.55320 -37.07646 34941 ft 467 kts 319°
2026-05-05 00:14 -5.50315 -37.11791 34936 ft 467 kts 319°
2026-05-05 00:15 -5.45302 -37.15936 34938 ft 467 kts 319°
2026-05-05 00:15 -5.40227 -37.20009 34938 ft 467 kts 320°
2026-05-05 00:16 -5.35139 -37.24054 34938 ft 467 kts 320°
2026-05-05 00:16 -5.30055 -37.28114 34940 ft 467 kts 320°
2026-05-05 00:17 -5.24985 -37.32171 34940 ft 467 kts 320°
2026-05-05 00:17 -5.19902 -37.36236 34939 ft 467 kts 320°
2026-05-05 00:18 -5.14878 -37.40371 34940 ft 467 kts 318°
2026-05-05 00:18 -5.10746 -37.43851 34940 ft 467 kts 318°
2026-05-05 00:19 -5.04969 -37.48710 34939 ft 466 kts 318°
2026-05-05 00:19 -4.99987 -37.52881 34936 ft 466 kts 319°
2026-05-05 00:20 -4.95008 -37.57043 34938 ft 466 kts 319°
2026-05-05 00:20 -4.90825 -37.60538 34935 ft 466 kts 319°
2026-05-05 00:21 -4.85869 -37.64678 34935 ft 466 kts 319°
2026-05-05 00:21 -4.80884 -37.68843 34937 ft 467 kts 319°
2026-05-05 00:22 -4.75892 -37.73012 34936 ft 467 kts 319°
2026-05-05 00:22 -4.70901 -37.77180 34935 ft 467 kts 319°
2026-05-05 00:23 -4.65903 -37.81354 34934 ft 467 kts 319°
2026-05-05 00:23 -4.60905 -37.85526 34937 ft 468 kts 319°
2026-05-05 00:24 -4.55900 -37.89704 34938 ft 468 kts 319°
2026-05-05 00:24 -4.50899 -37.93878 34935 ft 468 kts 319°
2026-05-05 00:25 -4.45882 -37.98056 34934 ft 468 kts 319°
2026-05-05 00:25 -4.40832 -38.02185 34939 ft 469 kts 319°
2026-05-05 00:26 -4.35769 -38.06314 34938 ft 469 kts 319°
2026-05-05 00:26 -4.30731 -38.10436 34941 ft 470 kts 319°
2026-05-05 00:27 -4.25678 -38.14587 34941 ft 470 kts 319°
2026-05-05 00:27 -4.20643 -38.18768 34936 ft 470 kts 319°
2026-05-05 00:28 -4.15612 -38.22950 34936 ft 470 kts 319°
2026-05-05 00:28 -4.10570 -38.27135 34941 ft 471 kts 319°
2026-05-05 00:29 -4.05524 -38.31320 34938 ft 471 kts 319°
2026-05-05 00:29 -4.00469 -38.35511 34937 ft 471 kts 319°
2026-05-05 00:30 -3.95416 -38.39700 34941 ft 472 kts 319°
2026-05-05 00:30 -3.90356 -38.43895 34918 ft 472 kts 319°
2026-05-05 00:31 -3.85298 -38.48088 34916 ft 472 kts 319°
2026-05-05 00:31 -3.80290 -38.52305 34900 ft 473 kts 314°
2026-05-05 00:31 -3.78210 -38.54846 34915 ft 471 kts 301°
2026-05-05 00:32 -3.76687 -38.57733 34917 ft 469 kts 290°
2026-05-05 00:32 -3.75104 -38.64042 34919 ft 468 kts 280°
2026-05-05 00:33 -3.73846 -38.70432 34931 ft 468 kts 280°
2026-05-05 00:33 -3.72535 -38.76858 34920 ft 472 kts 281°
2026-05-05 00:34 -3.71182 -38.83279 34925 ft 470 kts 281°
2026-05-05 00:34 -3.69826 -38.89669 34936 ft 468 kts 281°
2026-05-05 00:35 -3.68473 -38.96046 34941 ft 468 kts 281°
2026-05-05 00:35 -3.67133 -39.02377 34938 ft 467 kts 281°
2026-05-05 00:36 -3.65786 -39.08737 34938 ft 467 kts 281°
2026-05-05 00:36 -3.64440 -39.15092 34943 ft 467 kts 281°
2026-05-05 00:37 -3.63090 -39.21455 34944 ft 467 kts 281°
2026-05-05 00:37 -3.61736 -39.27817 34945 ft 467 kts 281°
2026-05-05 00:37 -3.61057 -39.31001 34834 ft 469 kts 281°
2026-05-05 00:38 -3.60371 -39.34223 34163 ft 475 kts 281°
2026-05-05 00:38 -3.59681 -39.37460 33422 ft 475 kts 281°
2026-05-05 00:38 -3.58992 -39.40693 32641 ft 476 kts 281°
2026-05-05 00:38 -3.58300 -39.43939 31832 ft 477 kts 281°
2026-05-05 00:39 -3.57606 -39.47196 30995 ft 480 kts 281°
2026-05-05 00:39 -3.56908 -39.50476 30132 ft 484 kts 281°
2026-05-05 00:39 -3.56211 -39.53745 29102 ft 488 kts 281°
2026-05-05 00:39 -3.55502 -39.57072 28107 ft 490 kts 282°
2026-05-05 00:40 -3.54789 -39.60414 27067 ft 492 kts 282°
2026-05-05 00:40 -3.54063 -39.63817 25987 ft 496 kts 282°
2026-05-05 00:40 -3.53346 -39.67182 25229 ft 492 kts 282°
2026-05-05 00:40 -3.52641 -39.70485 24465 ft 489 kts 282°
2026-05-05 00:41 -3.51934 -39.73799 23699 ft 486 kts 282°
2026-05-05 00:41 -3.51229 -39.77099 22813 ft 483 kts 282°
2026-05-05 00:41 -3.50530 -39.80378 22018 ft 478 kts 282°
2026-05-05 00:41 -3.49837 -39.83624 21255 ft 473 kts 282°
2026-05-05 00:42 -3.49152 -39.86832 20491 ft 469 kts 282°
2026-05-05 00:42 -3.48474 -39.90011 19744 ft 465 kts 282°
2026-05-05 00:42 -3.47801 -39.93163 18999 ft 462 kts 283°
2026-05-05 00:42 -3.47133 -39.96294 18255 ft 459 kts 283°
2026-05-05 00:43 -3.46467 -39.99409 17412 ft 456 kts 283°
2026-05-05 00:43 -3.45830 -40.02506 16614 ft 452 kts 281°
2026-05-05 00:43 -3.45361 -40.05595 16027 ft 443 kts 278°
2026-05-05 00:43 -3.44963 -40.08663 15122 ft 445 kts 278°
2026-05-05 00:44 -3.44564 -40.11687 14580 ft 434 kts 278°
2026-05-05 00:44 -3.44147 -40.14655 13832 ft 434 kts 279°
2026-05-05 00:44 -3.43626 -40.17582 13144 ft 426 kts 282°
2026-05-05 00:44 -3.43027 -40.20492 12465 ft 422 kts 283°
2026-05-05 00:45 -3.42418 -40.23338 11677 ft 419 kts 283°
2026-05-05 00:45 -3.41815 -40.26172 11177 ft 407 kts 282°
2026-05-05 00:45 -3.41253 -40.28856 10912 ft 382 kts 282°
2026-05-05 00:45 -3.40735 -40.31371 10763 ft 357 kts 282°
2026-05-05 00:46 -3.40254 -40.33731 10615 ft 336 kts 282°
2026-05-05 00:46 -3.39800 -40.35961 10484 ft 319 kts 282°
2026-05-05 00:46 -3.39365 -40.38101 10354 ft 308 kts 282°
2026-05-05 00:46 -3.38949 -40.40149 10241 ft 301 kts 282°
2026-05-05 00:47 -3.38529 -40.42216 10138 ft 305 kts 282°
2026-05-05 00:47 -3.38109 -40.44281 10010 ft 298 kts 282°
2026-05-05 00:47 -3.37703 -40.46277 9773 ft 288 kts 282°
2026-05-05 00:47 -3.37308 -40.48219 9482 ft 283 kts 282°
2026-05-05 00:48 -3.36886 -40.50143 9197 ft 283 kts 289°
2026-05-05 00:48 -3.35870 -40.51790 8896 ft 279 kts 320°
2026-05-05 00:48 -3.34246 -40.52780 8640 ft 272 kts 343°
2026-05-05 00:48 -3.32431 -40.53297 8364 ft 270 kts 349°
2026-05-05 00:49 -3.30603 -40.53735 8076 ft 270 kts 349°
2026-05-05 00:49 -3.28776 -40.54164 7806 ft 269 kts 349°
2026-05-05 00:49 -3.26952 -40.54596 7538 ft 269 kts 349°
2026-05-05 00:49 -3.25127 -40.55034 7249 ft 270 kts 349°
2026-05-05 00:50 -3.23302 -40.55477 6973 ft 270 kts 349°
2026-05-05 00:50 -3.21481 -40.55923 6686 ft 270 kts 349°
2026-05-05 00:50 -3.19651 -40.56373 6410 ft 271 kts 349°
2026-05-05 00:50 -3.17809 -40.56827 6090 ft 274 kts 349°
2026-05-05 00:51 -3.15974 -40.57280 5781 ft 276 kts 348°
2026-05-05 00:51 -3.14110 -40.57741 5480 ft 276 kts 348°
2026-05-05 00:51 -3.12231 -40.57888 5180 ft 269 kts 16°
2026-05-05 00:51 -3.10644 -40.57029 4928 ft 258 kts 45°
2026-05-05 00:52 -3.09292 -40.55852 4656 ft 258 kts 43°
2026-05-05 00:52 -3.07929 -40.54718 4540 ft 250 kts 43°
2026-05-05 00:52 -3.06603 -40.53629 4462 ft 240 kts 42°
2026-05-05 00:52 -3.05347 -40.52606 4383 ft 225 kts 42°
2026-05-05 00:53 -3.04169 -40.51649 4292 ft 211 kts 42°
2026-05-05 00:53 -3.03061 -40.50751 4171 ft 199 kts 43°
2026-05-05 00:53 -3.02011 -40.49901 4051 ft 189 kts 43°
2026-05-05 00:53 -3.01023 -40.49101 3827 ft 180 kts 43°
2026-05-05 00:54 -3.00056 -40.48319 3461 ft 178 kts 43°
2026-05-05 00:54 -2.99124 -40.47566 3217 ft 170 kts 43°
2026-05-05 00:54 -2.98245 -40.46858 3004 ft 157 kts 43°
2026-05-05 00:54 -2.97395 -40.46171 2603 ft 158 kts 42°
2026-05-05 00:55 -2.96544 -40.45483 2224 ft 157 kts 43°
2026-05-05 00:55 -2.95712 -40.44812 1954 ft 150 kts 42°
2026-05-05 00:55 -2.94909 -40.44152 1750 ft 150 kts 49°
2026-05-05 00:55 -2.94393 -40.43267 1711 ft 150 kts 69°
2026-05-05 00:56 -2.93939 -40.42330 1628 ft 149 kts 67°
2026-05-05 00:56 -2.93470 -40.41388 1400 ft 150 kts 65°
2026-05-05 00:56 -2.93008 -40.40465 1241 ft 148 kts 65°
2026-05-05 00:56 -2.92555 -40.39557 967 ft 147 kts 65°
2026-05-05 00:57 -2.92101 -40.38648 576 ft 144 kts 63°
2026-05-05 00:57 -2.91668 -40.37784 383 ft 134 kts 62°
2026-05-05 00:57 -2.91259 -40.36949 186 ft 134 kts 62°
2026-05-05 00:57 -2.90848 -40.36154 98 ft 118 kts 63°
2026-05-05 00:58 -2.90634 -40.35722 93 ft 36 kts 63°
2026-05-05 00:58 -2.90525 -40.35500 99 ft 26 kts 71°
2026-05-05 00:58 -2.90444 -40.35309 100 ft 28 kts 62°
2026-05-05 00:58 -2.90375 -40.35149 101 ft 25 kts 79°
2026-05-05 00:59 -2.90375 -40.35004 99 ft 20 kts 96°
2026-05-05 00:59 -2.90440 -40.34924 98 ft 14 kts 123°
2026-05-05 00:59 -2.90407 -40.34821 97 ft 14 kts 62°
2026-05-05 00:59 -2.90409 -40.34754 98 ft 7 kts 147°
2026-05-05 01:00 -2.90425 -40.34751 97 ft 1 kts 189°
2026-05-05 01:00 -2.90444 -40.34756 98 ft 2 kts 198°
2026-05-05 01:00 -2.90450 -40.34758 97 ft 0 kts 199°